Zurück zum Katalog

FLOCK 4H 30

AktivWissenschaftSSO
NORAD 66733·PAYLOAD·🇺🇸 United States

Gestartet Nov 28, 2025 von Vandenberg Space Force Base

Loading…

Nächste Überflüge (nächste 24 Stunden)

TLE

AktuellSource: CelesTrak SupGP

Epoche: Sep 15, 2026, 00:45 UTC

1 66733C 25276BV  26258.03134259  .00007569  00000+0  34368-3 0  2588
2 66733  97.4158 330.1951 0005646  69.4240 142.5118 15.20838593    16

Verfolge FLOCK 4H 30 in Echtzeit mit AllMySat

Download on the App Store